Overview Statistics Trail Chart Weather Telemetry Raw packets
 

This is the latest recevied weather packets stored in our database for station/object KQ4KX. If no packets are shown the sender has not sent any weather packets the latest 10 day(s).

<< 19 20 21 22 23 24 25 >>
Time Temp. Humidity Pressure Rain* Wind** Luminosity Snow
1788555275 32.22° C 73% 1014.2 hPa 0 mm - - -
1788555139 32.22° C 76% 1013.9 hPa 0 mm - - -
1788554945 32.22° C 76% 1013.9 hPa 0 mm - - -
1788554645 32.22° C 74% 1013.8 hPa 0 mm - - -
1788554345 32.22° C 75% 1013.8 hPa 0 mm - - -
1788554015 32.78° C 76% 1013.9 hPa 0 mm - - -
1788553355 32.22° C 82% 1013.7 hPa 0 mm - - -
1788553063 31.67° C 80% 1013.7 hPa 0 mm - - -
1788552425 32.22° C 77% 1013.7 hPa 0 mm - - -
1788551825 32.78° C 76% 1013.9 hPa 0 mm - - -
1788551225 32.78° C 76% 1013.9 hPa 0 mm - - -
1788550235 31.67° C 78% 1014.2 hPa 0 mm - - -
1788549935 31.11° C 79% 1014.2 hPa 0 mm - - -
1788549748 30° C 79% 1014.4 hPa 0 mm - - -
1788549635 30° C 79% 1014.4 hPa 0 mm - - -
1788549335 29.44° C 85% 1014.7 hPa 0 mm - - -
1788549166 27.78° C 88% 1015.1 hPa 0 mm - - -
1788549035 27.78° C 88% 1015.1 hPa 0 mm - - -
1788548834 27.22° C 90% 1014.8 hPa 0 mm - - -
1788548735 27.22° C 90% 1014.8 hPa 0 mm - - -
1788548571 26.67° C 90% 1015 hPa 0 mm - - -
1788548405 26.67° C 90% 1015 hPa 0 mm - - -
1788548105 26.67° C 88% 1015.2 hPa 0 mm - - -
1788547907 27.22° C 87% 1015.2 hPa 0 mm - - -
1788547775 27.22° C 87% 1015.2 hPa 0 mm - - -

* Rain latest hour (hover to see other rain measurements)
** Current wind speed in m/s (hover to see current wind gust speed)